User: anonymous   Login
Location: Granada
(37.1830°N, 3.6000°W)
Time: 05:03:19
(UTC+01:00)
Language:

Iridium 70 - Orbit

View from above orbital plane
View from above orbital plane
View from above satellite
View from above satellite

Ground track
Ground track

The orbit data is extracted from the following two-line orbital elements,

1 25342U 98032A   15063.54094064  .00000478  00000-0  16373-3 0  9997
2 25342 086.3978 213.4690 0001901 099.1856 008.7363 14.34216498879321
Epoch (UTC): 04 March 2015 12:58:57
Eccentricity: 0.0001901
inclination: 86.3978°
perigee height: 776 km
apogee height: 779 km
right ascension of ascending node: 213.4690°
argument of perigee: 99.1856°
revolutions per day: 14.34216498
mean anomaly at epoch: 8.7363°
orbit number at epoch: 87932

The dashed part of the orbit path shows where the satellite is in the earth's shadow,  

DLR